Date String (YYYY-MM-DD hh:mm:ss) UTC,Instrument flags,Ambient pressure (hPa),Sample flow (lpm),Bypass flow (lpm),Sample temperature (°C),Ambient temperature (°C),ASC tube jacket temperature (°C),LED temperature (°C),Box temperature (°C),Sample RH (%),Span deviation,Mass concentration (μg/m³),Mass concentration (μg/m³),Mass concentration (μg/m³)
DateTimeUTC,F1_M11,P_M11,Q1_M11,Q2_M11,T1_M11,T2_M11,T3_M11,T4_M11,T5_M11,U1_M11,ZSPAN_M11,X0_M11,X2_M11,X1_M11
2022-11-17 03:00:00,,0831.7,4.99,0.00,21.5,21.4,00.0,30.2,23.5,09.6,0000.0,0007.82,0003.22,0002.86
2022-11-17 03:01:00,,0831.7,5.00,0.00,21.5,21.0,00.0,30.3,23.4,09.7,0000.0,0007.85,0003.24,0002.90
2022-11-17 03:02:00,,0831.7,5.00,0.00,21.5,20.5,00.0,30.3,23.3,09.8,0000.0,0007.93,0003.30,0002.97
2022-11-17 03:03:00,,0831.7,5.00,0.00,21.4,20.1,00.0,30.3,23.2,09.9,0000.0,0007.65,0003.34,0003.01
2022-11-17 03:04:00,,0831.8,5.01,0.00,21.4,19.9,00.0,30.3,23.1,10.0,0000.0,0007.38,0003.40,0003.08
2022-11-17 03:05:00,,0831.7,5.00,0.00,21.4,19.6,00.0,30.3,23.0,10.0,0000.0,0007.69,0003.51,0003.14
2022-11-17 03:06:00,,0831.7,5.00,0.00,21.3,19.5,00.0,30.3,22.9,10.1,0000.0,0007.19,0003.60,0003.19
2022-11-17 03:07:00,,0831.8,5.00,0.00,21.3,19.3,00.0,30.3,22.9,10.2,0000.0,0007.46,0003.69,0003.25
2022-11-17 03:08:00,,0831.7,4.99,0.00,21.2,19.2,00.0,30.3,22.8,10.2,0000.0,0007.98,0003.78,0003.30
2022-11-17 03:09:00,,0831.7,5.00,0.00,21.2,19.1,00.0,30.3,22.8,10.3,0000.0,0008.23,0003.88,0003.36
2022-11-17 03:10:00,,0831.7,5.00,0.00,21.1,19.0,00.0,30.2,22.7,10.4,0000.0,0008.44,0003.95,0003.40
2022-11-17 03:11:00,,0831.7,5.01,0.00,21.1,19.0,00.0,30.2,22.7,10.5,0000.0,0008.63,0004.01,0003.43
2022-11-17 03:12:00,,0831.7,5.01,0.00,21.1,18.9,00.0,30.2,22.7,10.5,0000.0,0008.79,0004.06,0003.45
2022-11-17 03:13:00,,0831.7,4.99,0.00,21.1,19.8,00.0,30.1,22.8,10.6,0000.0,0008.91,0004.10,0003.46
2022-11-17 03:14:00,,0831.7,5.00,0.00,21.2,21.1,00.0,30.0,23.1,10.6,0000.0,0009.48,0004.12,0003.48
2022-11-17 03:15:00,,0831.8,5.00,0.00,21.3,21.3,00.0,30.1,23.2,10.6,0000.0,0009.87,0004.15,0003.49
2022-11-17 03:16:00,,0831.7,4.99,0.00,21.3,20.8,00.0,30.1,23.1,10.6,0000.0,0010.07,0004.15,0003.51
2022-11-17 03:17:00,,0831.7,5.00,0.00,21.3,20.3,00.0,30.2,23.0,10.6,0000.0,0010.78,0004.20,0003.53
2022-11-17 03:18:00,,0831.7,5.00,0.00,21.2,20.0,00.0,30.2,23.0,10.6,0000.0,0010.58,0004.23,0003.55
2022-11-17 03:19:00,,0831.7,5.00,0.00,21.2,19.8,00.0,30.2,22.9,10.6,0000.0,0010.05,0004.22,0003.56
2022-11-17 03:20:00,,0831.7,5.00,0.00,21.2,19.6,00.0,30.2,22.9,10.6,0000.0,0009.99,0004.20,0003.57
2022-11-17 03:21:00,,0831.7,5.01,0.00,21.2,19.5,00.0,30.2,22.9,10.6,0000.0,0010.35,0004.21,0003.58
2022-11-17 03:22:00,,0831.7,5.00,0.00,21.1,19.4,00.0,30.2,22.8,10.6,0000.0,0010.26,0004.18,0003.58
2022-11-17 03:23:00,,0831.7,5.00,0.00,21.1,19.3,00.0,30.1,22.8,10.6,0000.0,0010.44,0004.16,0003.57
2022-11-17 03:24:00,,0831.7,4.99,0.00,21.1,19.1,00.0,30.1,22.7,10.7,0000.0,0010.33,0004.12,0003.56
2022-11-17 03:25:00,,0831.7,5.00,0.00,21.0,19.0,00.0,30.1,22.6,10.7,0000.0,0010.70,0004.11,0003.56
2022-11-17 03:26:00,,0831.7,5.02,0.00,21.0,19.5,00.0,30.0,22.7,10.7,0000.0,0010.77,0004.11,0003.55
2022-11-17 03:27:00,,0831.7,4.99,0.00,21.1,20.8,00.0,30.0,23.0,10.5,0000.0,0010.46,0004.09,0003.54
2022-11-17 03:28:00,,0831.7,4.99,0.00,21.2,21.5,00.0,30.0,23.2,10.4,0000.0,0009.73,0004.03,0003.51
2022-11-17 03:29:00,,0831.6,4.99,0.00,21.3,21.0,00.0,30.1,23.2,10.4,0000.0,0009.46,0004.00,0003.48
2022-11-17 03:30:00,,0831.5,4.99,0.00,21.3,20.5,00.0,30.1,23.1,10.3,0000.0,0009.43,0003.97,0003.45
2022-11-17 03:31:00,,0831.5,5.00,0.00,21.2,20.1,00.0,30.1,22.9,10.4,0000.0,0009.25,0003.95,0003.44
2022-11-17 03:32:00,,0831.5,5.00,0.00,21.2,19.8,00.0,30.1,22.9,10.4,0000.0,0009.49,0003.92,0003.43
2022-11-17 03:33:00,,0831.5,5.00,0.00,21.2,19.6,00.0,30.1,22.8,10.3,0000.0,0009.42,0003.93,0003.43
2022-11-17 03:34:00,,0831.5,5.00,0.00,21.1,19.4,00.0,30.1,22.8,10.4,0000.0,0009.09,0003.90,0003.44
2022-11-17 03:35:00,,0831.5,5.01,0.00,21.1,19.2,00.0,30.1,22.7,10.4,0000.0,0009.07,0003.89,0003.43
2022-11-17 03:36:00,,0831.5,5.00,0.00,21.0,19.0,00.0,30.1,22.6,10.5,0000.0,0008.43,0003.92,0003.45
2022-11-17 03:37:00,,0831.5,5.00,0.00,21.0,18.8,00.0,30.1,22.5,10.5,0000.0,0008.11,0003.94,0003.47
2022-11-17 03:38:00,,0831.5,4.99,0.00,20.9,18.7,00.0,30.1,22.4,10.5,0000.0,0008.42,0003.97,0003.52
2022-11-17 03:39:00,,0831.4,5.00,0.00,20.9,19.5,00.0,30.0,22.6,10.5,0000.0,0008.58,0004.02,0003.56
2022-11-17 03:40:00,,0831.4,5.00,0.00,21.0,20.8,00.0,29.9,22.9,10.5,0000.0,0008.73,0004.07,0003.61
2022-11-17 03:41:00,,0831.3,4.99,0.00,21.1,21.2,00.0,29.9,23.0,10.6,0000.0,0009.81,0004.16,0003.68
2022-11-17 03:42:00,,0831.4,5.00,0.00,21.1,20.5,00.0,30.0,22.9,10.6,0000.0,0010.04,0004.24,0003.73
2022-11-17 03:43:00,,0831.5,4.99,0.00,21.1,20.0,00.0,30.0,22.8,10.6,0000.0,0009.59,0004.34,0003.78
2022-11-17 03:44:00,,0831.4,5.01,0.00,21.0,19.5,00.0,30.0,22.7,10.6,0000.0,0009.67,0004.46,0003.84
2022-11-17 03:45:00,,0831.4,5.00,0.00,21.0,19.2,00.0,30.0,22.6,10.7,0000.0,0009.75,0004.54,0003.91
2022-11-17 03:46:00,,0831.3,5.00,0.00,20.9,18.9,00.0,30.0,22.5,10.8,0000.0,0010.19,0004.64,0004.00
2022-11-17 03:47:00,,0831.4,5.00,0.00,20.9,18.7,00.0,30.0,22.4,10.9,0000.0,0010.36,0004.71,0004.09
2022-11-17 03:48:00,,0831.3,5.00,0.00,20.8,18.5,00.0,29.9,22.3,10.9,0000.0,0010.56,0004.80,0004.17
2022-11-17 03:49:00,,0831.2,5.02,0.00,20.8,19.1,00.0,29.9,22.4,10.9,0000.0,0010.59,0004.88,0004.22
2022-11-17 03:50:00,,0831.2,5.00,0.00,20.9,20.6,00.0,29.8,22.7,10.8,0000.0,0011.07,0004.99,0004.29
2022-11-17 03:51:00,,0831.2,4.99,0.00,21.0,21.6,00.0,29.8,23.0,10.8,0000.0,0010.95,0005.04,0004.35
2022-11-17 03:52:00,,0831.2,4.99,0.00,21.1,21.3,00.0,29.9,23.0,10.7,0000.0,0010.18,0005.10,0004.39
2022-11-17 03:53:00,,0831.2,5.00,0.00,21.1,20.6,00.0,29.9,22.9,10.6,0000.0,0010.48,0005.16,0004.43
2022-11-17 03:54:00,,0831.2,5.00,0.00,21.1,20.1,00.0,30.0,22.8,10.7,0000.0,0011.44,0005.24,0004.50
2022-11-17 03:55:00,,0831.2,5.01,0.00,21.0,19.7,00.0,30.0,22.7,10.7,0000.0,0011.58,0005.32,0004.59
2022-11-17 03:56:00,,0831.2,5.00,0.00,21.0,19.3,00.0,30.0,22.6,10.8,0000.0,0011.90,0005.42,0004.66
2022-11-17 03:57:00,,0831.2,5.01,0.00,20.9,19.1,00.0,30.0,22.5,10.9,0000.0,0012.08,0005.52,0004.70
2022-11-17 03:58:00,,0831.2,5.01,0.00,20.9,18.8,00.0,30.0,22.4,10.9,0000.0,0012.26,0005.58,0004.73
2022-11-17 03:59:00,,0831.2,5.00,0.00,20.8,18.7,00.0,29.9,22.3,10.8,0000.0,0012.66,0005.61,0004.76
